TimeEDT,TemperatureF,Dew PointF,Humidity,Sea Level PressureIn,VisibilityMPH,Wind Direction,Wind SpeedMPH,Gust SpeedMPH,PrecipitationIn,Events,Conditions,WindDirDegrees,DateUTC
12:15 AM,66.6,65.3,96,29.66,10.0,SSW,4.6,-,N/A,,Scattered Clouds,210,2013-11-02 04:15:00
12:35 AM,66.4,64.8,95,29.65,10.0,SW,3.5,-,N/A,,Clear,220,2013-11-02 04:35:00
12:55 AM,66.2,64.4,94,29.65,10.0,SW,3.5,-,N/A,,Clear,230,2013-11-02 04:55:00
1:15 AM,65.7,63.9,94,29.64,10.0,Calm,Calm,-,N/A,,Clear,0,2013-11-02 05:15:00
1:35 AM,64.8,63.5,96,29.65,10.0,SW,3.5,-,N/A,,Clear,220,2013-11-02 05:35:00
1:55 AM,64.2,63.0,96,29.65,10.0,SW,3.5,-,N/A,,Clear,220,2013-11-02 05:55:00
2:15 AM,63.7,62.6,96,29.65,10.0,West,3.5,-,N/A,,Mostly Cloudy,280,2013-11-02 06:15:00
2:35 AM,64.6,62.8,94,29.66,10.0,West,3.5,-,N/A,,Overcast,260,2013-11-02 06:35:00
2:55 AM,64.4,61.9,92,29.66,10.0,Calm,Calm,-,N/A,,Overcast,0,2013-11-02 06:55:00
3:15 AM,64.0,61.9,93,29.65,10.0,Calm,Calm,-,N/A,,Overcast,0,2013-11-02 07:15:00
3:35 AM,63.3,61.9,95,29.65,10.0,Calm,Calm,-,N/A,,Overcast,0,2013-11-02 07:35:00
3:55 AM,63.1,61.9,96,29.65,10.0,Calm,Calm,-,N/A,,Overcast,0,2013-11-02 07:55:00
4:15 AM,63.5,62.1,95,29.65,10.0,NW,3.5,-,N/A,,Mostly Cloudy,310,2013-11-02 08:15:00
4:35 AM,63.0,61.0,93,29.65,10.0,NNW,4.6,-,N/A,,Scattered Clouds,330,2013-11-02 08:35:00
4:55 AM,62.6,58.5,86,29.66,10.0,NW,3.5,-,N/A,,Clear,310,2013-11-02 08:55:00
5:15 AM,61.7,55.6,80,29.67,10.0,NW,3.5,-,N/A,,Clear,310,2013-11-02 09:15:00
5:35 AM,61.0,54.0,78,29.68,10.0,Calm,Calm,-,N/A,,Clear,0,2013-11-02 09:35:00
5:55 AM,59.7,52.7,78,29.68,10.0,West,3.5,-,N/A,,Scattered Clouds,280,2013-11-02 09:55:00
6:15 AM,58.8,52.3,79,29.69,10.0,Calm,Calm,-,N/A,,Overcast,0,2013-11-02 10:15:00
6:35 AM,59.0,52.5,79,29.69,10.0,Calm,Calm,-,N/A,,Overcast,0,2013-11-02 10:35:00
6:55 AM,57.2,52.9,85,29.69,10.0,Calm,Calm,-,N/A,,Overcast,0,2013-11-02 10:55:00
7:15 AM,56.1,54.1,93,29.69,10.0,Calm,Calm,-,N/A,,Scattered Clouds,0,2013-11-02 11:15:00
7:35 AM,55.0,53.4,94,29.69,10.0,Calm,Calm,-,N/A,,Scattered Clouds,0,2013-11-02 11:35:00
7:55 AM,54.7,53.1,94,29.70,10.0,Calm,Calm,-,N/A,,Scattered Clouds,0,2013-11-02 11:55:00
8:15 AM,55.4,53.8,94,29.70,10.0,Calm,Calm,-,N/A,,Scattered Clouds,0,2013-11-02 12:15:00
8:35 AM,57.2,54.1,89,29.70,10.0,Calm,Calm,-,N/A,,Clear,0,2013-11-02 12:35:00
8:55 AM,58.3,54.5,87,29.72,10.0,Calm,Calm,-,N/A,,Clear,0,2013-11-02 12:55:00
9:15 AM,59.5,53.4,80,29.72,10.0,Calm,Calm,-,N/A,,Clear,0,2013-11-02 13:15:00
9:35 AM,61.3,52.0,71,29.72,10.0,Calm,Calm,-,N/A,,Clear,0,2013-11-02 13:35:00
9:55 AM,63.9,50.7,62,29.72,10.0,Calm,Calm,-,N/A,,Clear,0,2013-11-02 13:55:00
10:15 AM,64.4,50.5,61,29.73,10.0,Calm,Calm,-,N/A,,Clear,0,2013-11-02 14:15:00
10:35 AM,65.7,50.7,58,29.72,10.0,Calm,Calm,-,N/A,,Scattered Clouds,0,2013-11-02 14:35:00
10:55 AM,68.0,49.6,52,29.72,10.0,Calm,Calm,-,N/A,,Scattered Clouds,0,2013-11-02 14:55:00
11:15 AM,68.5,47.5,47,29.72,10.0,WNW,3.5,-,N/A,,Clear,300,2013-11-02 15:15:00
11:35 AM,69.4,44.8,41,29.72,10.0,Calm,Calm,-,N/A,,Clear,0,2013-11-02 15:35:00
11:55 AM,71.1,43.0,36,29.71,10.0,West,4.6,-,N/A,,Clear,270,2013-11-02 15:55:00
1:15 PM,72.9,41.9,33,29.70,10.0,SW,8.1,-,N/A,,Scattered Clouds,230,2013-11-02 17:15:00
1:35 PM,72.7,40.3,31,29.69,10.0,WSW,9.2,-,N/A,,Clear,250,2013-11-02 17:35:00
1:55 PM,73.0,40.6,31,29.69,10.0,SW,10.4,-,N/A,,Clear,230,2013-11-02 17:55:00
2:15 PM,72.5,40.3,31,29.68,10.0,West,5.8,16.1,N/A,,Clear,270,2013-11-02 18:15:00
2:35 PM,74.1,40.3,29,29.67,10.0,WSW,10.4,-,N/A,,Clear,250,2013-11-02 18:35:00
2:55 PM,72.9,40.5,31,29.66,10.0,SW,6.9,16.1,N/A,,Clear,230,2013-11-02 18:55:00
3:15 PM,73.9,41.0,30,29.66,10.0,SW,8.1,-,N/A,,Scattered Clouds,220,2013-11-02 19:15:00
3:35 PM,71.6,41.0,33,29.67,10.0,SW,6.9,-,N/A,,Scattered Clouds,230,2013-11-02 19:35:00
3:55 PM,70.9,41.2,34,29.67,10.0,WSW,8.1,-,N/A,,Scattered Clouds,250,2013-11-02 19:55:00
4:15 PM,70.0,41.2,35,29.68,10.0,WSW,5.8,-,N/A,,Scattered Clouds,250,2013-11-02 20:15:00
4:35 PM,71.4,41.0,33,29.68,10.0,West,6.9,-,N/A,,Scattered Clouds,280,2013-11-02 20:35:00
4:55 PM,71.4,40.5,33,29.68,10.0,West,8.1,-,N/A,,Clear,270,2013-11-02 20:55:00
5:15 PM,68.2,39.2,35,29.70,10.0,West,3.5,-,N/A,,Clear,280,2013-11-02 21:15:00
5:35 PM,68.0,39.2,35,29.70,10.0,West,3.5,-,N/A,,Scattered Clouds,270,2013-11-02 21:35:00
5:55 PM,65.3,39.4,39,29.71,10.0,Calm,Calm,-,N/A,,Scattered Clouds,0,2013-11-02 21:55:00
6:15 PM,63.7,40.6,43,29.72,10.0,Calm,Calm,-,N/A,,Scattered Clouds,0,2013-11-02 22:15:00
6:35 PM,63.0,42.8,48,29.75,10.0,NNW,12.7,19.6,N/A,,Mostly Cloudy,330,2013-11-02 22:35:00
6:55 PM,61.7,42.3,49,29.78,10.0,NNW,8.1,20.7,N/A,,Overcast,340,2013-11-02 22:55:00
7:15 PM,60.8,42.3,50,29.79,10.0,NNW,5.8,16.1,N/A,,Mostly Cloudy,340,2013-11-02 23:15:00
7:35 PM,59.9,42.8,53,29.80,10.0,NNW,4.6,-,N/A,,Mostly Cloudy,330,2013-11-02 23:35:00
7:55 PM,59.4,41.5,52,29.82,10.0,NNW,8.1,-,N/A,,Scattered Clouds,330,2013-11-02 23:55:00
8:15 PM,58.8,41.0,52,29.82,10.0,NNW,6.9,-,N/A,,Scattered Clouds,330,2013-11-03 00:15:00
8:35 PM,57.7,41.0,54,29.83,10.0,NNW,4.6,-,N/A,,Clear,340,2013-11-03 00:35:00
8:55 PM,56.8,40.5,54,29.83,10.0,NNW,3.5,-,N/A,,Clear,340,2013-11-03 00:55:00
9:15 PM,56.3,40.3,55,29.83,10.0,NW,3.5,-,N/A,,Scattered Clouds,320,2013-11-03 01:15:00
9:35 PM,55.9,40.1,55,29.84,10.0,WNW,3.5,-,N/A,,Scattered Clouds,300,2013-11-03 01:35:00
9:55 PM,56.3,39.4,53,29.86,10.0,NNW,5.8,-,N/A,,Scattered Clouds,330,2013-11-03 01:55:00
10:15 PM,56.8,38.5,50,29.87,10.0,NNW,6.9,-,N/A,,Mostly Cloudy,330,2013-11-03 02:15:00
10:35 PM,56.7,37.6,49,29.88,10.0,NNW,4.6,-,N/A,,Overcast,330,2013-11-03 02:35:00
10:55 PM,56.1,37.0,49,29.89,10.0,NW,6.9,-,N/A,,Scattered Clouds,320,2013-11-03 02:55:00
11:15 PM,55.6,37.0,50,29.89,10.0,NNW,3.5,-,N/A,,Clear,330,2013-11-03 03:15:00
11:35 PM,54.9,37.4,52,29.90,10.0,Calm,Calm,-,N/A,,Clear,0,2013-11-03 03:35:00
11:55 PM,54.3,37.6,53,29.91,10.0,WNW,3.5,-,N/A,,Clear,300,2013-11-03 03:55:00